Check out our new BloomSky Weather System.

Active alerts


No alerts


Thunder radar  blitzortung!


Rain radar more information rain snow radar


Visit our other weather sites:

Template documentation
and downloads

And another site



Weather Underground History page Text

Daily Summary for June 8, 2017 Units:  English    Metric   Both
« Previous Day
Next Day »
Daily Weekly Monthly Yearly Custom
  High: Low: Average:
Temperature: 88.9 °F 69.6 °F 79.7 °F
Dew Point: 68.4 °F 62.6 °F 65.7 °F
Humidity: 85 % 47 % 64 %
Wind Speed: 10.0 mph 0.0 mph 1.1 mph
Wind Gust: 11.0 mph - -
Wind:- - SSW
Pressure: 29.98 in 29.84 in -
Precipitation: 0.00 in    
Historical Graphs
 
 
Tabular Data for June 8, 2017
Time Temperature Dew Point Pressure Wind Wind Speed Wind Gust Humidity Rainfall Rate (Hourly)
00:04 78.1 °F 68.4 °F 29.89 in ENE 2.0 mph 6.0 mph 72 % 0.00 in
00:09 78.1 °F 68.4 °F 29.90 in NE 1.0 mph 6.0 mph 72 % 0.00 in
00:14 78.1 °F 68.4 °F 29.90 in Calm   5.0 mph 72 % 0.00 in
00:19 77.9 °F 68.2 °F 29.90 in Calm   5.0 mph 72 % 0.00 in
00:24 77.7 °F 68.0 °F 29.90 in Calm   4.0 mph 72 % 0.00 in
00:29 77.5 °F 68.2 °F 29.90 in Calm   4.0 mph 73 % 0.00 in
00:34 77.5 °F 68.2 °F 29.90 in Calm   4.0 mph 73 % 0.00 in
00:39 77.4 °F 68.0 °F 29.90 in Calm   4.0 mph 73 % 0.00 in
00:44 77.2 °F 68.2 °F 29.90 in North 1.0 mph 4.0 mph 74 % 0.00 in
00:45 77.2 °F 68.2 °F 29.90 in Calm   4.0 mph 74 % 0.00 in
00:50 76.8 °F 67.8 °F 29.90 in NE 1.0 mph 4.0 mph 74 % 0.00 in
00:55 76.6 °F 68.2 °F 29.90 in Calm   3.0 mph 75 % 0.00 in
01:00 76.5 °F 68.4 °F 29.90 in Calm   3.0 mph 76 % 0.00 in
01:05 76.3 °F 68.2 °F 29.90 in Calm   3.0 mph 76 % 0.00 in
01:10 76.1 °F 68.4 °F 29.90 in Calm   3.0 mph 77 % 0.00 in
01:15 75.9 °F 68.2 °F 29.90 in Calm   2.0 mph 77 % 0.00 in
01:20 75.7 °F 68.0 °F 29.90 in Calm   2.0 mph 77 % 0.00 in
01:25 75.6 °F 68.2 °F 29.90 in Calm   1.0 mph 78 % 0.00 in
01:30 75.4 °F 68.0 °F 29.90 in Calm   1.0 mph 78 % 0.00 in
01:35 75.2 °F 67.8 °F 29.90 in Calm   2.0 mph 78 % 0.00 in
01:40 75.0 °F 68.0 °F 29.90 in Calm   2.0 mph 79 % 0.00 in
01:45 74.8 °F 67.8 °F 29.90 in NNW 1.0 mph 2.0 mph 79 % 0.00 in
01:50 74.7 °F 67.6 °F 29.90 in Calm   2.0 mph 79 % 0.00 in
01:55 74.5 °F 67.5 °F 29.90 in Calm   1.0 mph 79 % 0.00 in
02:00 74.5 °F 67.8 °F 29.90 in Calm   1.0 mph 80 % 0.00 in
02:05 74.3 °F 67.6 °F 29.90 in Calm   2.0 mph 80 % 0.00 in
02:10 74.1 °F 67.6 °F 29.90 in Calm   2.0 mph 80 % 0.00 in
02:15 74.1 °F 67.6 °F 29.90 in Calm   2.0 mph 80 % 0.00 in
02:20 73.9 °F 67.5 °F 29.90 in Calm   2.0 mph 80 % 0.00 in
02:25 73.9 °F 67.8 °F 29.90 in Calm   2.0 mph 81 % 0.00 in
02:30 73.8 °F 67.6 °F 29.90 in Calm   2.0 mph 81 % 0.00 in
02:35 73.6 °F 67.5 °F 29.90 in Calm   2.0 mph 81 % 0.00 in
02:40 73.6 °F 67.5 °F 29.90 in Calm   2.0 mph 81 % 0.00 in
02:45 73.6 °F 67.5 °F 29.90 in Calm   2.0 mph 81 % 0.00 in
02:50 73.2 °F 67.5 °F 29.90 in Calm   2.0 mph 82 % 0.00 in
02:55 73.2 °F 67.5 °F 29.90 in North 1.0 mph 1.0 mph 82 % 0.00 in
03:00 73.0 °F 67.3 °F 29.90 in Calm   1.0 mph 82 % 0.00 in
03:05 73.0 °F 67.3 °F 29.90 in NNW 1.0 mph 2.0 mph 82 % 0.00 in
03:10 73.0 °F 67.3 °F 29.90 in Calm   2.0 mph 82 % 0.00 in
03:15 72.9 °F 67.1 °F 29.90 in Calm   2.0 mph 82 % 0.00 in
03:20 72.9 °F 67.1 °F 29.90 in North 1.0 mph 2.0 mph 82 % 0.00 in
03:25 72.7 °F 66.9 °F 29.90 in Calm   2.0 mph 82 % 0.00 in
03:30 72.7 °F 66.9 °F 29.91 in Calm   2.0 mph 82 % 0.00 in
03:35 72.7 °F 66.9 °F 29.91 in Calm   3.0 mph 82 % 0.00 in
03:40 72.3 °F 66.6 °F 29.91 in NNE 1.0 mph 3.0 mph 82 % 0.00 in
03:45 72.3 °F 66.9 °F 29.91 in Calm   3.0 mph 83 % 0.00 in
03:50 72.3 °F 66.6 °F 29.91 in Calm   2.0 mph 82 % 0.00 in
03:55 72.1 °F 66.4 °F 29.91 in Calm   2.0 mph 82 % 0.00 in
04:00 72.1 °F 66.4 °F 29.91 in NNW 1.0 mph 2.0 mph 82 % 0.00 in
04:05 72.1 °F 66.4 °F 29.91 in Calm   3.0 mph 82 % 0.00 in
04:10 72.0 °F 66.2 °F 29.91 in Calm   3.0 mph 82 % 0.00 in
04:15 72.0 °F 66.2 °F 29.91 in Calm   3.0 mph 82 % 0.00 in
04:20 72.0 °F 66.6 °F 29.91 in Calm   2.0 mph 83 % 0.00 in
04:21 72.0 °F 66.6 °F 29.91 in North 1.0 mph 2.0 mph 83 % 0.00 in
04:26 71.8 °F 66.4 °F 29.91 in NNW 1.0 mph 2.0 mph 83 % 0.00 in
04:31 71.8 °F 66.4 °F 29.92 in Calm   2.0 mph 83 % 0.00 in
04:36 71.4 °F 66.0 °F 29.92 in NNW 1.0 mph 2.0 mph 83 % 0.00 in
04:41 71.4 °F 66.0 °F 29.92 in Calm   2.0 mph 83 % 0.00 in
04:46 71.2 °F 65.8 °F 29.92 in Calm   2.0 mph 83 % 0.00 in
04:51 71.2 °F 65.8 °F 29.92 in Calm   2.0 mph 83 % 0.00 in
04:56 71.1 °F 66.0 °F 29.92 in North 1.0 mph 2.0 mph 84 % 0.00 in
05:01 70.9 °F 65.8 °F 29.92 in Calm   2.0 mph 84 % 0.00 in
05:06 70.9 °F 65.8 °F 29.92 in Calm   3.0 mph 84 % 0.00 in
05:11 70.7 °F 65.7 °F 29.92 in NNW 1.0 mph 3.0 mph 84 % 0.00 in
05:16 70.5 °F 65.5 °F 29.93 in Calm   3.0 mph 84 % 0.00 in
05:21 70.3 °F 65.3 °F 29.93 in Calm   2.0 mph 84 % 0.00 in
05:26 70.3 °F 65.3 °F 29.93 in Calm   1.0 mph 84 % 0.00 in
05:31 70.2 °F 65.1 °F 29.93 in Calm   1.0 mph 84 % 0.00 in
05:36 70.2 °F 65.1 °F 29.93 in Calm   1.0 mph 84 % 0.00 in
05:41 70.2 °F 65.1 °F 29.93 in Calm   1.0 mph 84 % 0.00 in
05:46 70.0 °F 64.9 °F 29.93 in Calm   1.0 mph 84 % 0.00 in
05:51 70.0 °F 65.3 °F 29.94 in Calm   1.0 mph 85 % 0.00 in
05:56 70.0 °F 65.3 °F 29.94 in Calm   1.0 mph 85 % 0.00 in
06:01 69.8 °F 65.1 °F 29.94 in Calm   1.0 mph 85 % 0.00 in
06:06 69.8 °F 65.1 °F 29.94 in Calm   1.0 mph 85 % 0.00 in
06:09 69.8 °F 65.1 °F 29.94 in Calm   1.0 mph 85 % 0.00 in
06:14 70.0 °F 65.3 °F 29.94 in Calm   1.0 mph 85 % 0.00 in
06:19 70.0 °F 65.3 °F 29.94 in NE 1.0 mph 1.0 mph 85 % 0.00 in
06:24 70.0 °F 65.3 °F 29.95 in Calm   1.0 mph 85 % 0.00 in
06:29 69.8 °F 65.1 °F 29.95 in Calm   1.0 mph 85 % 0.00 in
06:34 69.8 °F 65.1 °F 29.95 in Calm   1.0 mph 85 % 0.00 in
06:39 69.6 °F 64.9 °F 29.95 in Calm   1.0 mph 85 % 0.00 in
06:44 69.8 °F 65.1 °F 29.95 in Calm   1.0 mph 85 % 0.00 in
06:49 69.8 °F 65.1 °F 29.96 in Calm   1.0 mph 85 % 0.00 in
06:54 70.0 °F 65.3 °F 29.96 in Calm   2.0 mph 85 % 0.00 in
06:59 70.0 °F 65.3 °F 29.96 in Calm   2.0 mph 85 % 0.00 in
07:04 70.2 °F 65.5 °F 29.96 in Calm   3.0 mph 85 % 0.00 in
07:09 70.2 °F 65.5 °F 29.96 in Calm   3.0 mph 85 % 0.00 in
07:15 70.3 °F 65.7 °F 29.96 in Calm   3.0 mph 85 % 0.00 in
07:20 70.3 °F 65.3 °F 29.97 in Calm   1.0 mph 84 % 0.00 in
07:21 70.5 °F 65.5 °F 29.97 in Calm   1.0 mph 84 % 0.00 in
07:26 70.5 °F 65.5 °F 29.96 in Calm   2.0 mph 84 % 0.00 in
07:31 70.9 °F 65.8 °F 29.96 in Calm   2.0 mph 84 % 0.00 in
07:36 71.1 °F 65.7 °F 29.96 in Calm   3.0 mph 83 % 0.00 in
07:41 71.4 °F 65.7 °F 29.96 in Calm   3.0 mph 82 % 0.00 in
07:46 72.3 °F 66.6 °F 29.97 in Calm   3.0 mph 82 % 0.00 in
07:51 73.0 °F 66.6 °F 29.97 in Calm   2.0 mph 80 % 0.00 in
07:56 73.2 °F 66.0 °F 29.97 in Calm   2.0 mph 78 % 0.00 in
08:01 73.8 °F 66.0 °F 29.97 in Calm   2.0 mph 77 % 0.00 in
08:06 74.1 °F 66.0 °F 29.97 in Calm   2.0 mph 76 % 0.00 in
08:11 74.8 °F 66.4 °F 29.97 in Calm   3.0 mph 75 % 0.00 in
08:16 75.4 °F 66.2 °F 29.97 in Calm   3.0 mph 73 % 0.00 in
08:21 75.6 °F 65.8 °F 29.97 in NE 3.0 mph 3.0 mph 72 % 0.00 in
08:26 75.7 °F 65.7 °F 29.97 in Calm   3.0 mph 71 % 0.00 in
08:31 76.3 °F 66.2 °F 29.97 in Calm   3.0 mph 71 % 0.00 in
08:36 76.6 °F 65.3 °F 29.97 in Calm   3.0 mph 68 % 0.00 in
08:41 76.8 °F 65.8 °F 29.97 in Calm   3.0 mph 69 % 0.00 in
08:46 77.2 °F 64.9 °F 29.97 in SE 1.0 mph 5.0 mph 66 % 0.00 in
08:51 77.5 °F 64.8 °F 29.97 in Calm   5.0 mph 65 % 0.00 in
08:56 78.1 °F 64.4 °F 29.98 in Calm   5.0 mph 63 % 0.00 in
09:01 77.7 °F 64.0 °F 29.97 in ESE 1.0 mph 4.0 mph 63 % 0.00 in
09:06 77.7 °F 64.6 °F 29.98 in ESE 2.0 mph 4.0 mph 64 % 0.00 in
09:11 78.3 °F 64.6 °F 29.98 in ESE 3.0 mph 4.0 mph 63 % 0.00 in
09:16 78.6 °F 64.9 °F 29.97 in ESE 3.0 mph 5.0 mph 63 % 0.00 in
09:21 78.4 °F 63.9 °F 29.97 in SSE 6.0 mph 6.0 mph 61 % 0.00 in
09:26 78.6 °F 64.0 °F 29.98 in ESE 4.0 mph 6.0 mph 61 % 0.00 in
09:31 78.8 °F 63.7 °F 29.98 in SE 1.0 mph 6.0 mph 60 % 0.00 in
09:36 79.3 °F 64.8 °F 29.98 in SSE 3.0 mph 6.0 mph 61 % 0.00 in
09:42 79.7 °F 64.6 °F 29.98 in SE 3.0 mph 5.0 mph 60 % 0.00 in
09:46 79.9 °F 64.2 °F 29.98 in SE 3.0 mph 6.0 mph 59 % 0.00 in
09:51 80.4 °F 66.2 °F 29.98 in NNE 2.0 mph 6.0 mph 62 % 0.00 in
09:56 81.3 °F 64.6 °F 29.98 in Calm   6.0 mph 57 % 0.00 in
10:02 81.9 °F 64.6 °F 29.98 in SSE 4.0 mph 5.0 mph 56 % 0.00 in
10:07 81.5 °F 64.2 °F 29.98 in East 1.0 mph 6.0 mph 56 % 0.00 in
10:12 81.3 °F 63.7 °F 29.98 in SSE 5.0 mph 6.0 mph 55 % 0.00 in
10:17 81.3 °F 64.0 °F 29.98 in ESE 1.0 mph 6.0 mph 56 % 0.00 in
10:22 82.0 °F 65.3 °F 29.98 in NNW 2.0 mph 6.0 mph 57 % 0.00 in
10:25 82.4 °F 65.1 °F 29.98 in Calm   6.0 mph 56 % 0.00 in
10:30 82.6 °F 64.2 °F 29.98 in Calm   5.0 mph 54 % 0.00 in
10:35 82.6 °F 64.2 °F 29.98 in NE 4.0 mph 6.0 mph 54 % 0.00 in
10:40 82.2 °F 63.9 °F 29.98 in SE 2.0 mph 6.0 mph 54 % 0.00 in
10:45 82.6 °F 62.6 °F 29.98 in Calm   6.0 mph 51 % 0.00 in
10:50 82.4 °F 63.5 °F 29.98 in Calm   5.0 mph 53 % 0.00 in
10:55 82.9 °F 64.6 °F 29.98 in ESE 3.0 mph 5.0 mph 54 % 0.00 in
11:00 83.5 °F 65.7 °F 29.98 in Calm   4.0 mph 55 % 0.00 in
11:05 83.8 °F 63.9 °F 29.98 in NW 3.0 mph 5.0 mph 51 % 0.00 in
11:10 83.5 °F 64.0 °F 29.98 in North 1.0 mph 5.0 mph 52 % 0.00 in
11:15 83.8 °F 63.1 °F 29.98 in ESE 1.0 mph 5.0 mph 50 % 0.00 in
11:20 84.2 °F 65.3 °F 29.98 in East 1.0 mph 5.0 mph 53 % 0.00 in
11:25 84.6 °F 64.9 °F 29.98 in Calm   5.0 mph 52 % 0.00 in
11:30 84.7 °F 65.1 °F 29.98 in NNW 2.0 mph 5.0 mph 52 % 0.00 in
11:35 84.9 °F 64.8 °F 29.98 in NNW 1.0 mph 5.0 mph 51 % 0.00 in
11:40 84.6 °F 65.5 °F 29.97 in NE 1.0 mph 5.0 mph 53 % 0.00 in
11:45 84.9 °F 64.8 °F 29.97 in East 1.0 mph 5.0 mph 51 % 0.00 in
11:50 85.6 °F 64.9 °F 29.97 in ESE 5.0 mph 5.0 mph 50 % 0.00 in
11:55 84.7 °F 63.0 °F 29.97 in NE 4.0 mph 6.0 mph 48 % 0.00 in
12:00 84.6 °F 63.3 °F 29.97 in NW 3.0 mph 6.0 mph 49 % 0.00 in
12:05 84.4 °F 63.7 °F 29.97 in Calm   6.0 mph 50 % 0.00 in
12:10 84.9 °F 63.7 °F 29.96 in ESE 2.0 mph 6.0 mph 49 % 0.00 in
12:15 85.5 °F 64.8 °F 29.96 in NNE 4.0 mph 6.0 mph 50 % 0.00 in
12:21 85.6 °F 65.5 °F 29.96 in Calm   10.0 mph 51 % 0.00 in
12:26 85.6 °F 63.7 °F 29.96 in West 10.0 mph 10.0 mph 48 % 0.00 in
12:31 85.6 °F 64.2 °F 29.96 in NW 2.0 mph 11.0 mph 49 % 0.00 in
12:36 85.6 °F 64.9 °F 29.96 in NW 3.0 mph 11.0 mph 50 % 0.00 in
12:41 85.6 °F 64.2 °F 29.95 in NW 4.0 mph 11.0 mph 49 % 0.00 in
12:46 85.3 °F 64.0 °F 29.95 in WNW 1.0 mph 5.0 mph 49 % 0.00 in
12:51 85.3 °F 64.6 °F 29.95 in WNW 4.0 mph 7.0 mph 50 % 0.00 in
12:56 85.6 °F 64.9 °F 29.95 in North 2.0 mph 7.0 mph 50 % 0.00 in
13:01 85.5 °F 64.0 °F 29.95 in North 2.0 mph 8.0 mph 49 % 0.00 in
13:06 85.3 °F 64.0 °F 29.95 in NNE 4.0 mph 8.0 mph 49 % 0.00 in
13:11 85.6 °F 65.5 °F 29.95 in NNW 1.0 mph 8.0 mph 51 % 0.00 in
13:15 85.6 °F 63.7 °F 29.94 in SSE 2.0 mph 8.0 mph 48 % 0.00 in
13:20 86.0 °F 66.4 °F 29.94 in ENE 2.0 mph 6.0 mph 52 % 0.00 in
13:25 86.5 °F 64.6 °F 29.94 in NNE 1.0 mph 4.0 mph 48 % 0.00 in
13:30 86.5 °F 65.7 °F 29.94 in Calm   6.0 mph 50 % 0.00 in
13:35 86.7 °F 65.8 °F 29.94 in NW 3.0 mph 6.0 mph 50 % 0.00 in
13:40 86.7 °F 65.3 °F 29.94 in NW 5.0 mph 8.0 mph 49 % 0.00 in
13:45 86.5 °F 64.6 °F 29.94 in Calm   8.0 mph 48 % 0.00 in
13:50 86.9 °F 65.5 °F 29.93 in NNE 1.0 mph 8.0 mph 49 % 0.00 in
13:55 87.1 °F 67.3 °F 29.93 in NW 2.0 mph 9.0 mph 52 % 0.00 in
14:00 86.7 °F 66.4 °F 29.92 in ENE 1.0 mph 9.0 mph 51 % 0.00 in
14:05 87.4 °F 65.8 °F 29.92 in ENE 7.0 mph 9.0 mph 49 % 0.00 in
14:10 87.1 °F 66.7 °F 29.92 in NNW 5.0 mph 8.0 mph 51 % 0.00 in
14:15 86.5 °F 65.1 °F 29.92 in NNW 3.0 mph 9.0 mph 49 % 0.00 in
14:20 86.9 °F 66.6 °F 29.91 in Calm   9.0 mph 51 % 0.00 in
14:25 87.4 °F 66.6 °F 29.91 in NNW 6.0 mph 9.0 mph 50 % 0.00 in
14:30 87.8 °F 66.2 °F 29.91 in NNW 5.0 mph 7.0 mph 49 % 0.00 in
14:35 87.1 °F 64.9 °F 29.91 in South 3.0 mph 9.0 mph 48 % 0.00 in
14:40 87.3 °F 66.4 °F 29.91 in East 5.0 mph 9.0 mph 50 % 0.00 in
14:45 87.1 °F 66.2 °F 29.91 in NW 1.0 mph 9.0 mph 50 % 0.00 in
14:50 87.3 °F 67.5 °F 29.91 in North 5.0 mph 6.0 mph 52 % 0.00 in
14:55 87.6 °F 67.3 °F 29.90 in North 3.0 mph 8.0 mph 51 % 0.00 in
15:00 88.0 °F 66.9 °F 29.90 in WNW 1.0 mph 8.0 mph 50 % 0.00 in
15:02 88.0 °F 66.9 °F 29.90 in North 1.0 mph 8.0 mph 50 % 0.00 in
15:07 88.2 °F 67.1 °F 29.90 in WSW 1.0 mph 8.0 mph 50 % 0.00 in
15:12 87.8 °F 66.2 °F 29.90 in ENE 1.0 mph 7.0 mph 49 % 0.00 in
15:17 87.6 °F 66.0 °F 29.90 in NNW 3.0 mph 7.0 mph 49 % 0.00 in
15:22 87.6 °F 66.0 °F 29.89 in SE 2.0 mph 7.0 mph 49 % 0.00 in
15:27 87.6 °F 66.7 °F 29.89 in ENE 2.0 mph 6.0 mph 50 % 0.00 in
15:32 88.2 °F 67.1 °F 29.89 in NNW 3.0 mph 6.0 mph 50 % 0.00 in
15:37 88.2 °F 65.3 °F 29.89 in WNW 3.0 mph 8.0 mph 47 % 0.00 in
15:42 88.2 °F 66.6 °F 29.89 in SSE 2.0 mph 8.0 mph 49 % 0.00 in
15:47 88.9 °F 66.6 °F 29.88 in Calm   8.0 mph 48 % 0.00 in
15:48 88.9 °F 67.8 °F 29.88 in Calm   8.0 mph 50 % 0.00 in
15:53 88.9 °F 66.0 °F 29.88 in ESE 3.0 mph 7.0 mph 47 % 0.00 in
15:58 88.2 °F 66.0 °F 29.88 in ENE 2.0 mph 8.0 mph 48 % 0.00 in
16:03 88.2 °F 66.0 °F 29.88 in NE 3.0 mph 8.0 mph 48 % 0.00 in
16:08 88.0 °F 65.8 °F 29.88 in NE 2.0 mph 8.0 mph 48 % 0.00 in
16:13 88.0 °F 66.9 °F 29.88 in NNW 3.0 mph 8.0 mph 50 % 0.00 in
16:18 88.3 °F 66.7 °F 29.87 in NNW 1.0 mph 8.0 mph 49 % 0.00 in
16:23 88.3 °F 67.3 °F 29.87 in NNE 2.0 mph 8.0 mph 50 % 0.00 in
16:28 88.2 °F 65.3 °F 29.87 in NW 2.0 mph 9.0 mph 47 % 0.00 in
16:33 88.0 °F 66.4 °F 29.87 in NW 1.0 mph 10.0 mph 49 % 0.00 in
16:38 88.2 °F 66.6 °F 29.87 in NNW 2.0 mph 10.0 mph 49 % 0.00 in
16:43 88.2 °F 66.0 °F 29.86 in NW 2.0 mph 10.0 mph 48 % 0.00 in
16:48 88.2 °F 66.6 °F 29.86 in Calm   8.0 mph 49 % 0.00 in
16:53 88.5 °F 66.4 °F 29.86 in NW 3.0 mph 8.0 mph 48 % 0.00 in
16:58 88.5 °F 66.9 °F 29.86 in WNW 1.0 mph 8.0 mph 49 % 0.00 in
17:03 88.2 °F 66.6 °F 29.86 in Calm   7.0 mph 49 % 0.00 in
17:08 88.7 °F 67.1 °F 29.86 in East 2.0 mph 6.0 mph 49 % 0.00 in
17:13 88.5 °F 65.7 °F 29.86 in NNW 5.0 mph 6.0 mph 47 % 0.00 in
17:18 88.5 °F 66.9 °F 29.86 in NNW 3.0 mph 9.0 mph 49 % 0.00 in
17:23 88.0 °F 65.8 °F 29.86 in NNW 1.0 mph 9.0 mph 48 % 0.00 in
17:28 87.1 °F 65.7 °F 29.86 in WNW 3.0 mph 9.0 mph 49 % 0.00 in
17:33 86.7 °F 65.8 °F 29.86 in Calm   7.0 mph 50 % 0.00 in
17:38 86.4 °F 65.5 °F 29.85 in NW 1.0 mph 7.0 mph 50 % 0.00 in
17:43 87.3 °F 67.5 °F 29.85 in North 5.0 mph 7.0 mph 52 % 0.00 in
17:48 88.0 °F 67.6 °F 29.85 in Calm   7.0 mph 51 % 0.00 in
17:53 88.2 °F 67.1 °F 29.85 in NNW 5.0 mph 7.0 mph 50 % 0.00 in
17:58 87.6 °F 66.0 °F 29.85 in NW 1.0 mph 7.0 mph 49 % 0.00 in
18:00 76.5 °F 64.2 °F 29.88 in Calm   2.0 mph 66 % 0.00 in
18:01 76.5 °F 64.2 °F 29.88 in Calm   7.0 mph 66 % 0.00 in
18:02 76.5 °F 64.2 °F 29.88 in Calm   7.0 mph 66 % 0.00 in
18:03 87.6 °F 67.3 °F 29.85 in North 4.0 mph 7.0 mph 51 % 0.00 in
18:08 87.4 °F 65.3 °F 29.84 in NNE 3.0 mph 7.0 mph 48 % 0.00 in
18:13 87.4 °F 65.8 °F 29.85 in NW 3.0 mph 7.0 mph 49 % 0.00 in
18:18 87.3 °F 66.4 °F 29.85 in North 2.0 mph 6.0 mph 50 % 0.00 in
18:23 87.1 °F 66.2 °F 29.84 in North 1.0 mph 6.0 mph 50 % 0.00 in
18:28 87.1 °F 65.7 °F 29.84 in NW 1.0 mph 6.0 mph 49 % 0.00 in
18:33 87.1 °F 66.2 °F 29.84 in North 1.0 mph 6.0 mph 50 % 0.00 in
18:43 86.7 °F 65.8 °F 29.84 in Calm   6.0 mph 50 % 0.00 in
18:48 86.7 °F 65.8 °F 29.84 in NE 4.0 mph 6.0 mph 50 % 0.00 in
18:53 86.7 °F 65.8 °F 29.84 in North 3.0 mph 6.0 mph 50 % 0.00 in
18:58 86.4 °F 64.9 °F 29.84 in ENE 4.0 mph 5.0 mph 49 % 0.00 in
19:03 85.8 °F 64.9 °F 29.84 in Calm   7.0 mph 50 % 0.00 in
19:09 85.8 °F 65.7 °F 29.84 in Calm   7.0 mph 51 % 0.00 in
19:14 86.0 °F 65.1 °F 29.84 in NE 2.0 mph 7.0 mph 50 % 0.00 in
19:19 85.8 °F 64.9 °F 29.84 in North 1.0 mph 7.0 mph 50 % 0.00 in
19:22 85.6 °F 64.9 °F 29.84 in North 2.0 mph 6.0 mph 50 % 0.00 in
19:27 84.9 °F 64.2 °F 29.84 in East 1.0 mph 5.0 mph 50 % 0.00 in
19:32 84.6 °F 64.4 °F 29.85 in NNW 1.0 mph 7.0 mph 51 % 0.00 in
19:37 84.0 °F 63.9 °F 29.85 in ENE 2.0 mph 7.0 mph 51 % 0.00 in
19:42 84.0 °F 64.6 °F 29.85 in Calm   7.0 mph 52 % 0.00 in
19:47 83.7 °F 64.2 °F 29.85 in Calm   5.0 mph 52 % 0.00 in
19:52 83.5 °F 64.0 °F 29.85 in Calm   5.0 mph 52 % 0.00 in
19:57 82.9 °F 63.5 °F 29.85 in Calm   5.0 mph 52 % 0.00 in
20:02 82.8 °F 63.9 °F 29.85 in Calm   5.0 mph 53 % 0.00 in
20:07 82.6 °F 63.7 °F 29.85 in ENE 1.0 mph 5.0 mph 53 % 0.00 in
20:12 82.2 °F 63.3 °F 29.86 in NE 2.0 mph 5.0 mph 53 % 0.00 in
20:17 82.0 °F 63.7 °F 29.86 in ENE 1.0 mph 4.0 mph 54 % 0.00 in
20:22 81.7 °F 63.9 °F 29.86 in NNW 1.0 mph 4.0 mph 55 % 0.00 in
20:27 81.5 °F 63.9 °F 29.86 in Calm   4.0 mph 55 % 0.00 in
20:32 81.3 °F 64.0 °F 29.85 in Calm   4.0 mph 56 % 0.00 in
20:37 81.0 °F 63.9 °F 29.85 in Calm   4.0 mph 56 % 0.00 in
20:42 80.8 °F 64.0 °F 29.85 in Calm   4.0 mph 57 % 0.00 in
20:47 80.6 °F 64.4 °F 29.85 in Calm   2.0 mph 58 % 0.00 in
20:52 80.4 °F 64.2 °F 29.85 in Calm   2.0 mph 58 % 0.00 in
20:57 80.2 °F 64.6 °F 29.86 in Calm   2.0 mph 59 % 0.00 in
21:02 79.9 °F 64.2 °F 29.86 in Calm   2.0 mph 59 % 0.00 in
21:07 79.7 °F 64.6 °F 29.86 in Calm   2.0 mph 60 % 0.00 in
21:13 79.5 °F 64.4 °F 29.86 in North 1.0 mph 2.0 mph 60 % 0.00 in
21:18 79.3 °F 64.8 °F 29.86 in North 1.0 mph 2.0 mph 61 % 0.00 in
23:03 76.3 °F 64.0 °F 29.88 in Calm   7.0 mph 66 % 0.00 in
23:08 76.1 °F 64.4 °F 29.89 in Calm     67 % 0.00 in
23:13 75.9 °F 64.6 °F 29.89 in Calm   1.0 mph 68 % 0.00 in
23:18 75.6 °F 64.2 °F 29.89 in Calm   1.0 mph 68 % 0.00 in
23:23 75.2 °F 64.4 °F 29.89 in Calm   1.0 mph 69 % 0.00 in
23:28 75.0 °F 64.2 °F 29.89 in Calm     69 % 0.00 in
23:33 74.7 °F 64.2 °F 29.89 in Calm     70 % 0.00 in
23:38 74.5 °F 64.4 °F 29.88 in Calm     71 % 0.00 in
23:43 74.1 °F 64.0 °F 29.88 in Calm     71 % 0.00 in
23:48 73.9 °F 64.4 °F 29.88 in Calm     72 % 0.00 in
23:53 73.6 °F 64.0 °F 29.88 in Calm     72 % 0.00 in
23:59 73.4 °F 64.2 °F 29.88 in Calm     73 % 0.00 in
Spring, Texas: Villages of Bridgestone
Compliments of Weather Underground - 2.75 mb

Script developed by  Jim McMurry - jmcmurry@mwt.net Adapted for the template by  Wim van der Kuil - Leuven-Template.eu

You find our weather info also at:

UK Metoffice

WeatherCloud

Weather Underground

Mid-South Weather Network

AWEKAS

Citizen Weather Observer Program (CWOP)

HAMweather, WeatherForYou, PWS Weather

Equipment we use:

Weather-station
Davis Vantage Vue

Weather-program
Meteohub

Weather-server
Debian 7.9 x86 (Guest)

Provider
DreamHost

Davis Vantage Vue

Meteohub

Debian 7.9 x86 (Guest)

DreamHost